User: anonymous   Login
Location: Unspecified
(0.0000°N, 0.0000°E)
Time: 02:55:57
(UTC+00:00)
Language:

STARLINK-2525 - Orbit

View from above orbital plane
View from above orbital plane
View from above satellite
View from above satellite

Ground track
Ground track

The orbit is defined by the following mean orbital elements,

1 48482U          26145.40605432 +.00000000 +00000-0 +26352-4 0 00003
2 48482  53.1596 197.0958 0001214  89.2005 270.9136 15.31697126    07
Epoch (UTC): 25 May 2026 09:44:43
Eccentricity: 0.0001214
inclination: 53.1596°
perigee height: 470 km
apogee height: 472 km
right ascension of ascending node: 197.0958°
argument of perigee: 89.2005°
revolutions per day: 15.31697126
mean anomaly at epoch: 270.9136°

The dashed part of the orbit path shows where the satellite is in the earth's shadow,  

DLR